CZ-6A DEB

Satellite information

Favourite Embed

Satellite Type and Status

DEBRISIN ORBIT

Key statistics

Satellite CZ-6A DEB at a glance.

Uptime

1129

Days in orbit

Revolutions

≈ 14.3

Per day

Orbit

SSO

Sun Synchronous Orbit

Inclination

98.7

Latest

Satellite identification and parameters

Extended collection of information and parameters for CZ-6A DEB.

Object identification

Identified? True

Debris? True

Object name: CZ-6A DEB

International designator: 2022-151AN

Object number (NORAD): 54295

Object ID (CCSDS): 54295

Country: PEOPLES REPUBLIC OF CHINA (PRC)

Current information (Y/N): Y

RCS size: SMALL

Orbital parameters

Period: 100.78 minutes

Inclination: 98.7415 deg

SMA: 7173.686 km

Apoapsis: 898.428 km

Periapsis: 692.674 km

RAAN: 356.3466 deg

Eccentricy: 0.01434089

Argument of periapsis: 343.8754 deg

Mean anomaly: 15.7888 deg

Mean motion: 14.28858435 rev/day

Mean motion (dot): 0.00007509 rev/day2

B* drag term: 0.0026790694 1/REarth

Two-line elements (TLE)

Creation date: Dec. 14, 2025, 3:07 a.m.

Reference frame: TEME

Reference center: EARTH

Epoch: Dec. 13, 2025, 1:28 p.m. UTC

TLE line 0: 0 CZ-6A DEB

TLE line 1: 1 54295U 22151AN 25347.56146183 .00007509 00000-0 26791-2 0 9999

TLE line 2: 2 54295 98.7415 356.3466 0143409 343.8754 15.7888 14.28858435159526

Live tracking on map

Real-time ground track for satellite CZ-6A DEB.

In-orbit conjunctions

A list of the most updated potential collisions computed for object CZ-6A DEB.

Target Orbit TCA Probability of collision Miss distance Type
THORAD AGENA D DEB LEO 2025-10-10 04:08:06 0.0002523765 131.0 (m) DEBRIS
COSMOS 2251 DEB LEO 2025-09-24 23:03:12 0.0001645081 244.0 (m) DEBRIS

Associated space launch

Chinese satellite reported for atmospheric/ocean/environmental/spatial parameter research purposes, details TBD.

CZ-6A DEB was lifted into orbit during the mission ‘Long March 6A | Yunhai 3’, on board a Long March 6A space rocket.

The launch took place on Nov. 11, 2022, 10:52 p.m. from Launch Complex 9A.

For more information about the launch, click the button.

Launch to space Long March 6A | Yunhai 3
Long March 6A | Yunhai 3

Agency: N/A

Status: Launch Successful

Launch date: Nov. 11, 2022, 10:52 p.m. UTC

Rocket: Long March 6A

Launch pad: Launch Complex 9A

Location: Taiyuan Satellite Launch Center, People's Republic of China

...

Latest news about this satellite

There are no fresh news available about this satellite. Check back as we update our databases every day.


Newsletter sign-up

Weekly statistics, charts and insights to help you stay on top of the space industry.